Time,TemperatureF,DewpointF,PressureIn,WindDirection,WindDirectionDegrees,WindSpeedMPH,WindSpeedGustMPH,Humidity,HourlyPrecipIn,Conditions,Clouds,dailyrainin,SoftwareType,DateUTC
2013-11-22 00:03:00,39.7,33.1,30.21,NE,34,16.0,25.0,77,0.00,,,0.02,meteohub,2013-11-22 06:03:00,
2013-11-22 00:08:00,39.4,32.7,30.22,North,0,11.0,25.0,77,0.00,,,0.00,meteohub,2013-11-22 06:08:00,
2013-11-22 00:13:00,39.0,32.4,30.22,NNE,12,13.0,23.0,77,0.00,,,0.00,meteohub,2013-11-22 06:13:00,
2013-11-22 00:18:00,38.7,32.4,30.23,North,0,10.0,23.0,78,0.00,,,0.00,meteohub,2013-11-22 06:18:00,
2013-11-22 00:23:00,38.7,32.4,30.23,NNW,327,13.0,23.0,78,0.00,,,0.00,meteohub,2013-11-22 06:23:00,
2013-11-22 00:28:00,38.7,32.4,30.23,NNW,344,16.0,23.0,78,0.00,,,0.00,meteohub,2013-11-22 06:28:00,
2013-11-22 00:33:00,38.5,32.2,30.24,North,0,16.0,23.0,78,0.00,,,0.00,meteohub,2013-11-22 06:33:00,
2013-11-22 00:38:00,38.5,32.2,30.24,NNW,346,6.0,23.0,78,0.00,,,0.00,meteohub,2013-11-22 06:38:00,
2013-11-22 00:43:00,38.5,32.2,30.24,NW,321,9.0,23.0,78,0.00,,,0.00,meteohub,2013-11-22 06:43:00,
2013-11-22 00:48:00,38.1,31.6,30.25,NW,307,7.0,23.0,77,0.00,,,0.00,meteohub,2013-11-22 06:48:00,
2013-11-22 00:53:00,37.9,31.5,30.25,WNW,285,6.0,25.0,77,0.00,,,0.00,meteohub,2013-11-22 06:53:00,
2013-11-22 00:58:00,37.8,31.3,30.25,North,5,9.0,25.0,77,0.00,,,0.00,meteohub,2013-11-22 06:58:00,
2013-11-22 01:03:00,37.8,31.3,30.25,NW,317,8.0,25.0,77,0.00,,,0.00,meteohub,2013-11-22 07:03:00,
2013-11-22 01:08:00,37.6,31.3,30.25,NNW,338,16.0,25.0,78,0.00,,,0.00,meteohub,2013-11-22 07:08:00,
2013-11-22 01:13:00,37.2,30.9,30.25,North,349,12.0,21.0,78,0.00,,,0.00,meteohub,2013-11-22 07:13:00,
2013-11-22 01:18:00,37.0,30.7,30.25,North,355,10.0,21.0,78,0.00,,,0.00,meteohub,2013-11-22 07:18:00,
2013-11-22 01:23:00,36.9,30.6,30.25,North,0,9.0,21.0,78,0.00,,,0.00,meteohub,2013-11-22 07:23:00,
2013-11-22 01:28:00,36.7,30.7,30.25,NE,46,6.0,21.0,79,0.00,,,0.00,meteohub,2013-11-22 07:28:00,
2013-11-22 01:33:00,36.5,30.4,30.26,NE,40,11.0,24.0,78,0.00,,,0.00,meteohub,2013-11-22 07:33:00,
2013-11-22 01:38:00,36.3,30.2,30.26,WNW,302,9.0,24.0,78,0.00,,,0.00,meteohub,2013-11-22 07:38:00,
2013-11-22 01:43:00,36.1,30.0,30.27,NW,309,8.0,22.0,78,0.00,,,0.00,meteohub,2013-11-22 07:43:00,
2013-11-22 01:48:00,36.1,29.7,30.27,NNW,331,7.0,22.0,77,0.00,,,0.00,meteohub,2013-11-22 07:48:00,
2013-11-22 01:53:00,36.1,29.7,30.27,North,355,13.0,25.0,77,0.00,,,0.00,meteohub,2013-11-22 07:53:00,
2013-11-22 01:58:00,36.1,29.7,30.26,NNE,22,5.0,25.0,77,0.00,,,0.00,meteohub,2013-11-22 07:58:00,
2013-11-22 02:03:00,36.0,29.5,30.26,NNW,329,10.0,26.0,77,0.00,,,0.00,meteohub,2013-11-22 08:03:00,
2013-11-22 02:08:00,36.0,29.5,30.26,North,355,7.0,26.0,77,0.00,,,0.00,meteohub,2013-11-22 08:08:00,
2013-11-22 02:13:00,36.0,29.5,30.27,North,11,4.0,26.0,77,0.00,,,0.00,meteohub,2013-11-22 08:13:00,
2013-11-22 02:18:00,36.0,29.5,30.27,North,9,9.0,26.0,77,0.00,,,0.00,meteohub,2013-11-22 08:18:00,
2013-11-22 02:23:00,36.0,29.5,30.27,North,355,8.0,26.0,77,0.00,,,0.00,meteohub,2013-11-22 08:23:00,
2013-11-22 02:28:00,35.8,29.3,30.28,NW,309,9.0,19.0,77,0.00,,,0.00,meteohub,2013-11-22 08:28:00,
2013-11-22 02:33:00,35.6,29.1,30.28,NNW,347,12.0,19.0,77,0.00,,,0.00,meteohub,2013-11-22 08:33:00,
2013-11-22 02:38:00,35.4,28.9,30.28,NW,325,8.0,19.0,77,0.00,,,0.00,meteohub,2013-11-22 08:38:00,
2013-11-22 02:43:00,35.4,29.3,30.28,NW,325,5.0,19.0,78,0.00,,,0.00,meteohub,2013-11-22 08:43:00,
2013-11-22 02:48:00,35.2,29.1,30.28,North,355,13.0,21.0,78,0.00,,,0.00,meteohub,2013-11-22 08:48:00,
2013-11-22 02:53:00,35.2,29.1,30.28,NE,49,12.0,21.0,78,0.00,,,0.00,meteohub,2013-11-22 08:53:00,
2013-11-22 02:58:00,35.2,29.1,30.27,North,9,13.0,21.0,78,0.00,,,0.00,meteohub,2013-11-22 08:58:00,
2013-11-22 03:03:00,35.2,29.1,30.27,NNW,346,10.0,21.0,78,0.00,,,0.00,meteohub,2013-11-22 09:03:00,
2013-11-22 03:08:00,35.2,29.1,30.28,North,355,11.0,21.0,78,0.00,,,0.00,meteohub,2013-11-22 09:08:00,
2013-11-22 03:13:00,35.2,28.8,30.27,NE,44,10.0,22.0,77,0.00,,,0.00,meteohub,2013-11-22 09:13:00,
2013-11-22 03:18:00,35.2,29.1,30.27,NNE,16,4.0,22.0,78,0.00,,,0.00,meteohub,2013-11-22 09:18:00,
2013-11-22 03:23:00,35.2,28.8,30.27,North,0,6.0,21.0,77,0.00,,,0.00,meteohub,2013-11-22 09:23:00,
2013-11-22 03:28:00,35.2,28.4,30.27,NNW,344,19.0,21.0,76,0.00,,,0.00,meteohub,2013-11-22 09:28:00,
2013-11-22 03:33:00,35.1,28.2,30.26,ENE,67,8.0,21.0,76,0.00,,,0.00,meteohub,2013-11-22 09:33:00,
2013-11-22 03:38:00,35.1,28.2,30.27,NNE,25,7.0,21.0,76,0.00,,,0.00,meteohub,2013-11-22 09:38:00,
2013-11-22 03:43:00,35.1,28.2,30.27,North,355,18.0,21.0,76,0.00,,,0.00,meteohub,2013-11-22 09:43:00,
2013-11-22 03:49:00,34.9,27.7,30.29,NNW,346,11.0,21.0,75,0.00,,,0.00,meteohub,2013-11-22 09:49:00,
2013-11-22 03:54:00,34.9,27.7,30.28,NNW,343,13.0,21.0,75,0.00,,,0.00,meteohub,2013-11-22 09:54:00,
2013-11-22 03:59:00,34.7,27.7,30.28,NNW,346,8.0,21.0,75,0.00,,,0.00,meteohub,2013-11-22 09:59:00,
2013-11-22 04:04:00,34.5,27.5,30.28,NNE,30,13.0,22.0,75,0.00,,,0.00,meteohub,2013-11-22 10:04:00,
2013-11-22 04:09:00,34.5,27.5,30.29,NNW,327,13.0,22.0,75,0.00,,,0.00,meteohub,2013-11-22 10:09:00,
2013-11-22 04:14:00,34.5,27.1,30.29,NNW,341,9.0,22.0,74,0.00,,,0.00,meteohub,2013-11-22 10:14:00,
2013-11-22 04:19:00,34.3,27.3,30.28,NE,43,11.0,22.0,75,0.00,,,0.00,meteohub,2013-11-22 10:19:00,
2013-11-22 04:24:00,34.3,27.3,30.29,North,350,11.0,22.0,75,0.00,,,0.00,meteohub,2013-11-22 10:24:00,
2013-11-22 04:29:00,34.3,27.3,30.28,NW,316,6.0,20.0,75,0.00,,,0.00,meteohub,2013-11-22 10:29:00,
2013-11-22 04:34:00,34.3,27.0,30.28,NNE,28,12.0,20.0,74,0.00,,,0.00,meteohub,2013-11-22 10:34:00,
2013-11-22 04:39:00,34.2,26.8,30.29,NNE,19,3.0,28.0,74,0.00,,,0.00,meteohub,2013-11-22 10:39:00,
2013-11-22 04:44:00,34.2,26.8,30.31,NNE,24,14.0,28.0,74,0.00,,,0.00,meteohub,2013-11-22 10:44:00,
2013-11-22 04:49:00,34.2,26.8,30.30,NW,307,11.0,28.0,74,0.00,,,0.00,meteohub,2013-11-22 10:49:00,
2013-11-22 04:54:00,34.0,26.2,30.30,North,355,10.0,20.0,73,0.00,,,0.00,meteohub,2013-11-22 10:54:00,
2013-11-22 04:59:00,33.6,25.9,30.30,North,0,10.0,20.0,73,0.00,,,0.00,meteohub,2013-11-22 10:59:00,
2013-11-22 05:04:00,33.6,25.9,30.30,NNE,32,13.0,20.0,73,0.00,,,0.00,meteohub,2013-11-22 11:04:00,
2013-11-22 05:09:00,33.6,25.9,30.31,North,5,7.0,20.0,73,0.00,,,0.00,meteohub,2013-11-22 11:09:00,
2013-11-22 05:14:00,33.6,25.9,30.32,NW,319,10.0,22.0,73,0.00,,,0.00,meteohub,2013-11-22 11:14:00,
2013-11-22 05:19:00,33.6,25.9,30.34,North,11,17.0,22.0,73,0.00,,,0.00,meteohub,2013-11-22 11:19:00,
2013-11-22 05:24:00,33.6,25.9,30.34,NNE,17,6.0,22.0,73,0.00,,,0.00,meteohub,2013-11-22 11:24:00,
2013-11-22 05:29:00,33.6,25.9,30.34,NNW,338,8.0,22.0,73,0.00,,,0.00,meteohub,2013-11-22 11:29:00,
2013-11-22 05:34:00,33.6,25.9,30.35,NNE,25,8.0,19.0,73,0.00,,,0.00,meteohub,2013-11-22 11:34:00,
2013-11-22 05:39:00,33.6,25.5,30.35,NNE,28,6.0,19.0,72,0.00,,,0.00,meteohub,2013-11-22 11:39:00,
2013-11-22 05:44:00,33.6,25.9,30.36,North,355,8.0,19.0,73,0.00,,,0.00,meteohub,2013-11-22 11:44:00,
2013-11-22 05:49:00,33.6,25.5,30.35,ESE,111,5.0,19.0,72,0.00,,,0.00,meteohub,2013-11-22 11:49:00,
2013-11-22 05:54:00,33.6,25.5,30.35,NE,42,8.0,20.0,72,0.00,,,0.00,meteohub,2013-11-22 11:54:00,
2013-11-22 05:59:00,33.4,25.3,30.35,West,281,0.0,20.0,72,0.00,,,0.00,meteohub,2013-11-22 11:59:00,
2013-11-22 06:04:00,33.4,25.0,30.35,WNW,303,9.0,20.0,71,0.00,,,0.00,meteohub,2013-11-22 12:04:00,
2013-11-22 06:09:00,33.4,25.3,30.35,NW,325,7.0,20.0,72,0.00,,,0.00,meteohub,2013-11-22 12:09:00,
2013-11-22 06:14:00,33.4,25.7,30.35,NNE,28,8.0,19.0,73,0.00,,,0.00,meteohub,2013-11-22 12:14:00,
2013-11-22 06:19:00,33.3,26.2,30.35,NNE,25,7.0,19.0,75,0.00,,,0.00,meteohub,2013-11-22 12:19:00,
2013-11-22 06:24:00,33.1,26.6,30.37,NNW,333,0.0,19.0,77,0.00,,,0.00,meteohub,2013-11-22 12:24:00,
2013-11-22 06:29:00,32.9,27.1,30.37,NNW,333,13.0,19.0,79,0.00,,,0.00,meteohub,2013-11-22 12:29:00,
2013-11-22 06:34:00,32.7,27.0,30.37,NNW,329,9.0,22.0,79,0.01,,,0.00,meteohub,2013-11-22 12:34:00,
2013-11-22 06:39:00,32.4,27.0,30.37,NNW,345,5.0,22.0,80,0.01,,,0.00,meteohub,2013-11-22 12:39:00,
2013-11-22 06:44:00,32.2,26.8,30.38,North,5,13.0,22.0,80,0.01,,,0.01,meteohub,2013-11-22 12:44:00,
2013-11-22 06:49:00,31.8,27.0,30.38,NW,324,10.0,22.0,82,0.01,,,0.01,meteohub,2013-11-22 12:49:00,
2013-11-22 06:54:00,31.6,26.8,30.37,East,88,13.0,21.0,82,0.02,,,0.01,meteohub,2013-11-22 12:54:00,
2013-11-22 06:59:00,31.5,26.6,30.38,NNW,328,0.0,21.0,82,0.02,,,0.01,meteohub,2013-11-22 12:59:00,
2013-11-22 07:04:00,31.5,26.6,30.39,NNW,346,0.0,21.0,82,0.02,,,0.02,meteohub,2013-11-22 13:04:00,
2013-11-22 07:10:00,31.3,26.4,30.40,NNW,330,0.0,21.0,82,0.02,,,0.02,meteohub,2013-11-22 13:10:00,
2013-11-22 07:15:00,31.3,26.4,30.40,NW,326,0.0,13.0,82,0.02,,,0.02,meteohub,2013-11-22 13:15:00,
2013-11-22 07:20:00,31.1,26.2,30.40,NNW,335,0.0,13.0,82,0.02,,,0.02,meteohub,2013-11-22 13:20:00,
2013-11-22 07:25:00,31.1,26.6,30.40,NNE,14,0.0,13.0,83,0.02,,,0.02,meteohub,2013-11-22 13:25:00,
2013-11-22 07:30:00,31.1,26.6,30.40,NNW,333,0.0,13.0,83,0.01,,,0.02,meteohub,2013-11-22 13:30:00,
2013-11-22 07:35:00,30.9,26.4,30.40,NNW,336,0.0,0.0,83,0.01,,,0.02,meteohub,2013-11-22 13:35:00,
2013-11-22 07:40:00,30.9,26.4,30.41,North,5,0.0,0.0,83,0.01,,,0.02,meteohub,2013-11-22 13:40:00,
2013-11-22 07:45:00,30.7,26.4,30.41,NNW,346,0.0,0.0,84,0.01,,,0.02,meteohub,2013-11-22 13:45:00,
2013-11-22 07:50:00,30.7,26.8,30.40,ENE,58,0.0,0.0,85,0.00,,,0.02,meteohub,2013-11-22 13:50:00,
2013-11-22 07:55:00,30.6,26.6,30.40,WNW,296,0.0,0.0,85,0.00,,,0.02,meteohub,2013-11-22 13:55:00,
2013-11-22 08:00:00,30.6,27.0,30.41,WNW,296,0.0,0.0,86,0.00,,,0.02,meteohub,2013-11-22 14:00:00,
2013-11-22 08:05:00,30.6,27.0,30.41,WNW,296,0.0,0.0,86,0.00,,,0.02,meteohub,2013-11-22 14:05:00,
2013-11-22 08:10:00,30.6,27.0,30.43,WNW,296,0.0,0.0,86,0.00,,,0.02,meteohub,2013-11-22 14:10:00,
2013-11-22 08:15:00,30.4,26.8,30.43,WNW,296,0.0,0.0,86,0.00,,,0.02,meteohub,2013-11-22 14:15:00,
2013-11-22 08:20:00,30.4,26.8,30.42,WNW,296,0.0,0.0,86,0.00,,,0.02,meteohub,2013-11-22 14:20:00,
2013-11-22 08:25:00,30.2,26.6,30.43,WNW,296,0.0,0.0,86,0.00,,,0.02,meteohub,2013-11-22 14:25:00,
2013-11-22 08:30:00,30.0,26.4,30.42,WNW,296,0.0,0.0,86,0.00,,,0.02,meteohub,2013-11-22 14:30:00,
2013-11-22 08:35:00,29.8,26.2,30.43,WNW,296,0.0,0.0,86,0.00,,,0.02,meteohub,2013-11-22 14:35:00,
2013-11-22 08:40:00,29.8,26.2,30.43,WNW,296,0.0,0.0,86,0.00,,,0.02,meteohub,2013-11-22 14:40:00,
2013-11-22 08:45:00,29.8,26.2,30.45,WNW,296,0.0,0.0,86,0.00,,,0.02,meteohub,2013-11-22 14:45:00,
2013-11-22 08:50:00,29.8,26.4,30.46,WNW,296,0.0,0.0,87,0.00,,,0.02,meteohub,2013-11-22 14:50:00,
2013-11-22 08:55:00,29.8,26.4,30.46,WNW,296,0.0,0.0,87,0.00,,,0.02,meteohub,2013-11-22 14:55:00,
2013-11-22 09:00:00,29.7,26.2,30.45,WNW,296,0.0,0.0,87,0.00,,,0.02,meteohub,2013-11-22 15:00:00,
2013-11-22 09:05:00,29.7,26.6,30.46,WNW,296,0.0,0.0,88,0.00,,,0.02,meteohub,2013-11-22 15:05:00,
2013-11-22 09:10:00,29.7,26.6,30.46,WNW,296,0.0,0.0,88,0.00,,,0.02,meteohub,2013-11-22 15:10:00,
2013-11-22 09:15:00,29.8,26.8,30.46,WNW,296,0.0,0.0,88,0.00,,,0.02,meteohub,2013-11-22 15:15:00,
2013-11-22 09:20:00,29.8,26.8,30.47,WNW,296,0.0,0.0,88,0.00,,,0.02,meteohub,2013-11-22 15:20:00,
2013-11-22 09:25:00,29.8,26.8,30.47,WNW,296,0.0,0.0,88,0.00,,,0.02,meteohub,2013-11-22 15:25:00,
2013-11-22 09:30:00,29.8,26.4,30.48,WNW,296,0.0,0.0,87,0.00,,,0.02,meteohub,2013-11-22 15:30:00,
2013-11-22 09:35:00,29.8,26.4,30.47,WNW,296,0.0,0.0,87,0.00,,,0.02,meteohub,2013-11-22 15:35:00,
2013-11-22 09:40:00,29.8,26.4,30.47,WNW,296,0.0,0.0,87,0.00,,,0.02,meteohub,2013-11-22 15:40:00,
2013-11-22 09:45:00,29.8,26.4,30.48,WNW,296,0.0,0.0,87,0.00,,,0.02,meteohub,2013-11-22 15:45:00,
2013-11-22 09:50:00,29.8,26.2,30.48,WNW,296,0.0,0.0,86,0.00,,,0.02,meteohub,2013-11-22 15:50:00,
2013-11-22 09:55:00,30.0,26.4,30.47,WNW,296,0.0,0.0,86,0.00,,,0.02,meteohub,2013-11-22 15:55:00,
2013-11-22 10:00:00,30.0,26.4,30.49,WNW,296,0.0,0.0,86,0.00,,,0.02,meteohub,2013-11-22 16:00:00,
2013-11-22 10:05:00,30.0,26.4,30.49,WNW,296,0.0,0.0,86,0.00,,,0.02,meteohub,2013-11-22 16:05:00,
2013-11-22 10:10:00,30.2,26.2,30.49,WNW,296,0.0,0.0,85,0.00,,,0.02,meteohub,2013-11-22 16:10:00,
2013-11-22 10:15:00,30.0,25.7,30.48,North,5,0.0,0.0,84,0.00,,,0.02,meteohub,2013-11-22 16:15:00,
2013-11-22 10:20:00,30.0,26.1,30.49,NE,44,0.0,0.0,85,0.00,,,0.02,meteohub,2013-11-22 16:20:00,
2013-11-22 10:25:00,30.0,25.7,30.49,NNW,342,0.0,0.0,84,0.00,,,0.02,meteohub,2013-11-22 16:25:00,
2013-11-22 10:30:00,30.0,26.1,30.49,NW,315,0.0,0.0,85,0.00,,,0.02,meteohub,2013-11-22 16:30:00,
2013-11-22 10:35:00,30.0,26.1,30.49,North,355,0.0,0.0,85,0.00,,,0.02,meteohub,2013-11-22 16:35:00,
2013-11-22 10:40:00,29.8,25.9,30.48,NE,55,0.0,0.0,85,0.00,,,0.02,meteohub,2013-11-22 16:40:00,
2013-11-22 10:45:00,30.0,26.4,30.48,NE,55,0.0,0.0,86,0.00,,,0.02,meteohub,2013-11-22 16:45:00,
2013-11-22 10:50:00,30.0,26.4,30.49,ENE,57,0.0,0.0,86,0.00,,,0.02,meteohub,2013-11-22 16:50:00,
2013-11-22 10:55:00,30.2,26.2,30.49,ENE,57,0.0,0.0,85,0.00,,,0.02,meteohub,2013-11-22 16:55:00,
2013-11-22 11:00:00,30.0,26.1,30.50,ENE,57,0.0,0.0,85,0.00,,,0.02,meteohub,2013-11-22 17:00:00,
2013-11-22 11:06:00,30.0,26.1,30.49,ENE,57,0.0,0.0,85,0.00,,,0.02,meteohub,2013-11-22 17:06:00,
2013-11-22 11:11:00,29.8,25.5,30.50,ENE,57,0.0,0.0,84,0.00,,,0.02,meteohub,2013-11-22 17:11:00,
2013-11-22 11:16:00,29.8,25.5,30.49,ENE,57,0.0,0.0,84,0.00,,,0.02,meteohub,2013-11-22 17:16:00,
2013-11-22 11:21:00,29.8,25.5,30.50,NNW,330,0.0,0.0,84,0.00,,,0.02,meteohub,2013-11-22 17:21:00,
2013-11-22 11:26:00,29.7,25.3,30.50,NNW,340,0.0,0.0,84,0.00,,,0.02,meteohub,2013-11-22 17:26:00,
2013-11-22 11:31:00,29.7,25.3,30.49,North,5,0.0,0.0,84,0.00,,,0.02,meteohub,2013-11-22 17:31:00,
2013-11-22 11:36:00,29.8,25.9,30.49,NNW,346,0.0,0.0,85,0.00,,,0.02,meteohub,2013-11-22 17:36:00,
2013-11-22 11:41:00,29.8,25.9,30.49,NNW,330,0.0,0.0,85,0.00,,,0.02,meteohub,2013-11-22 17:41:00,
2013-11-22 11:46:00,30.0,26.1,30.49,North,350,0.0,0.0,85,0.00,,,0.02,meteohub,2013-11-22 17:46:00,
2013-11-22 11:51:00,29.8,25.5,30.50,NNW,346,0.0,0.0,84,0.00,,,0.02,meteohub,2013-11-22 17:51:00,
2013-11-22 11:56:00,29.8,25.9,30.49,WNW,295,0.0,0.0,85,0.00,,,0.02,meteohub,2013-11-22 17:56:00,
2013-11-22 12:01:00,30.0,26.1,30.49,NNW,339,0.0,0.0,85,0.00,,,0.02,meteohub,2013-11-22 18:01:00,
2013-11-22 12:06:00,30.0,26.1,30.49,NNW,327,0.0,0.0,85,0.00,,,0.02,meteohub,2013-11-22 18:06:00,
2013-11-22 12:11:00,30.0,26.1,30.48,NNW,344,0.0,0.0,85,0.00,,,0.02,meteohub,2013-11-22 18:11:00,
2013-11-22 12:16:00,30.0,26.4,30.48,NNW,329,0.0,0.0,86,0.00,,,0.02,meteohub,2013-11-22 18:16:00,
2013-11-22 12:21:00,29.8,26.2,30.48,WNW,303,0.0,0.0,86,0.00,,,0.02,meteohub,2013-11-22 18:21:00,
2013-11-22 12:26:00,29.8,26.4,30.47,NNW,342,0.0,0.0,87,0.00,,,0.02,meteohub,2013-11-22 18:26:00,
2013-11-22 12:31:00,30.0,26.6,30.48,NNE,13,0.0,0.0,87,0.00,,,0.02,meteohub,2013-11-22 18:31:00,
2013-11-22 12:36:00,30.0,26.4,30.47,ENE,67,0.0,0.0,86,0.00,,,0.02,meteohub,2013-11-22 18:36:00,
2013-11-22 12:41:00,30.0,26.4,30.46,ENE,67,0.0,0.0,86,0.00,,,0.02,meteohub,2013-11-22 18:41:00,
2013-11-22 12:46:00,30.4,27.0,30.46,ENE,67,0.0,0.0,87,0.00,,,0.02,meteohub,2013-11-22 18:46:00,
2013-11-22 12:51:00,30.4,26.8,30.47,NNE,22,0.0,0.0,86,0.00,,,0.02,meteohub,2013-11-22 18:51:00,
2013-11-22 12:56:00,30.6,27.0,30.46,NW,313,0.0,0.0,86,0.00,,,0.02,meteohub,2013-11-22 18:56:00,
2013-11-22 13:01:00,30.7,27.1,30.46,NW,317,0.0,0.0,86,0.00,,,0.02,meteohub,2013-11-22 19:01:00,
2013-11-22 13:06:00,30.7,27.1,30.47,North,5,0.0,0.0,86,0.00,,,0.02,meteohub,2013-11-22 19:06:00,
2013-11-22 13:11:00,30.7,26.8,30.46,NNW,327,0.0,0.0,85,0.00,,,0.02,meteohub,2013-11-22 19:11:00,
2013-11-22 13:16:00,30.7,26.8,30.46,NNW,338,0.0,0.0,85,0.00,,,0.02,meteohub,2013-11-22 19:16:00,
2013-11-22 13:21:00,30.9,27.1,30.45,NNW,335,0.0,0.0,86,0.00,,,0.02,meteohub,2013-11-22 19:21:00,
2013-11-22 13:26:00,30.9,27.1,30.45,North,355,0.0,0.0,86,0.00,,,0.02,meteohub,2013-11-22 19:26:00,
2013-11-22 13:31:00,30.7,27.1,30.45,North,9,0.0,0.0,86,0.00,,,0.02,meteohub,2013-11-22 19:31:00,
2013-11-22 13:36:00,30.6,26.6,30.45,NNW,333,0.0,0.0,85,0.00,,,0.02,meteohub,2013-11-22 19:36:00,
2013-11-22 13:41:00,30.7,26.8,30.45,North,351,0.0,0.0,85,0.00,,,0.02,meteohub,2013-11-22 19:41:00,
2013-11-22 13:46:00,30.7,27.1,30.45,NNW,328,0.0,0.0,86,0.00,,,0.02,meteohub,2013-11-22 19:46:00,
2013-11-22 13:51:00,30.7,26.8,30.44,NW,317,0.0,0.0,85,0.00,,,0.02,meteohub,2013-11-22 19:51:00,
2013-11-22 13:56:00,30.9,27.1,30.44,NNW,342,0.0,0.0,86,0.00,,,0.02,meteohub,2013-11-22 19:56:00,
2013-11-22 14:01:00,30.9,27.1,30.44,NW,325,0.0,0.0,86,0.00,,,0.02,meteohub,2013-11-22 20:01:00,
2013-11-22 14:06:00,30.9,27.0,30.44,NNW,336,0.0,0.0,85,0.00,,,0.02,meteohub,2013-11-22 20:06:00,
2013-11-22 14:11:00,30.7,26.8,30.44,NNW,340,0.0,0.0,85,0.00,,,0.02,meteohub,2013-11-22 20:11:00,
2013-11-22 14:16:00,30.9,27.0,30.44,NNE,20,0.0,0.0,85,0.00,,,0.02,meteohub,2013-11-22 20:16:00,
2013-11-22 14:21:00,30.9,27.0,30.45,NNW,347,0.0,0.0,85,0.00,,,0.02,meteohub,2013-11-22 20:21:00,
2013-11-22 14:26:00,30.7,26.4,30.45,North,355,0.0,0.0,84,0.00,,,0.02,meteohub,2013-11-22 20:26:00,
2013-11-22 14:32:00,30.7,26.8,30.45,NE,41,0.0,0.0,85,0.00,,,0.02,meteohub,2013-11-22 20:32:00,
2013-11-22 14:37:00,30.9,27.0,30.45,NNW,334,0.0,0.0,85,0.00,,,0.02,meteohub,2013-11-22 20:37:00,
2013-11-22 14:42:00,30.7,26.8,30.45,NNW,328,0.0,0.0,85,0.00,,,0.02,meteohub,2013-11-22 20:42:00,
2013-11-22 14:47:00,30.7,27.1,30.45,NNW,332,0.0,0.0,86,0.00,,,0.02,meteohub,2013-11-22 20:47:00,
2013-11-22 14:52:00,30.7,26.8,30.45,North,355,0.0,0.0,85,0.00,,,0.02,meteohub,2013-11-22 20:52:00,
2013-11-22 14:57:00,30.7,26.8,30.46,North,350,0.0,0.0,85,0.00,,,0.02,meteohub,2013-11-22 20:57:00,
2013-11-22 15:02:00,30.7,27.1,30.46,North,355,0.0,0.0,86,0.00,,,0.02,meteohub,2013-11-22 21:02:00,
2013-11-22 15:07:00,30.7,27.1,30.46,NNW,334,0.0,0.0,86,0.00,,,0.02,meteohub,2013-11-22 21:07:00,
2013-11-22 15:12:00,30.9,27.1,30.46,NNW,343,0.0,0.0,86,0.00,,,0.02,meteohub,2013-11-22 21:12:00,
2013-11-22 15:17:00,30.9,27.1,30.46,NNE,26,0.0,0.0,86,0.00,,,0.02,meteohub,2013-11-22 21:17:00,
2013-11-22 15:22:00,30.7,27.1,30.47,NNW,342,0.0,0.0,86,0.00,,,0.02,meteohub,2013-11-22 21:22:00,
2013-11-22 15:27:00,30.7,27.1,30.47,North,5,0.0,0.0,86,0.00,,,0.02,meteohub,2013-11-22 21:27:00,
2013-11-22 15:32:00,30.7,27.1,30.47,NNW,345,0.0,0.0,86,0.00,,,0.02,meteohub,2013-11-22 21:32:00,
2013-11-22 15:37:00,30.7,27.3,30.47,NNE,12,0.0,0.0,87,0.00,,,0.02,meteohub,2013-11-22 21:37:00,
2013-11-22 15:42:00,30.7,27.3,30.47,NNW,327,0.0,0.0,87,0.00,,,0.02,meteohub,2013-11-22 21:42:00,
2013-11-22 15:47:00,30.7,27.3,30.47,NNW,335,0.0,0.0,87,0.00,,,0.02,meteohub,2013-11-22 21:47:00,
2013-11-22 15:52:00,30.7,27.7,30.47,NNW,333,0.0,0.0,88,0.00,,,0.02,meteohub,2013-11-22 21:52:00,
2013-11-22 15:57:00,30.9,27.9,30.47,NNW,339,0.0,0.0,88,0.00,,,0.02,meteohub,2013-11-22 21:57:00,
2013-11-22 16:02:00,30.9,27.9,30.47,NNW,338,0.0,0.0,88,0.00,,,0.02,meteohub,2013-11-22 22:02:00,
2013-11-22 16:07:00,30.9,28.0,30.47,North,355,0.0,0.0,89,0.00,,,0.02,meteohub,2013-11-22 22:07:00,
2013-11-22 16:12:00,30.7,27.9,30.48,NNW,336,0.0,0.0,89,0.00,,,0.02,meteohub,2013-11-22 22:12:00,
2013-11-22 16:17:00,30.7,27.9,30.47,NNW,338,0.0,0.0,89,0.00,,,0.02,meteohub,2013-11-22 22:17:00,
2013-11-22 16:22:00,30.7,27.9,30.48,NNW,333,0.0,0.0,89,0.00,,,0.02,meteohub,2013-11-22 22:22:00,
2013-11-22 16:27:00,30.7,27.9,30.48,NNE,23,0.0,0.0,89,0.00,,,0.02,meteohub,2013-11-22 22:27:00,
2013-11-22 16:32:00,30.7,27.9,30.47,North,5,0.0,0.0,89,0.00,,,0.02,meteohub,2013-11-22 22:32:00,
2013-11-22 16:37:00,30.6,27.7,30.48,NW,318,0.0,0.0,89,0.00,,,0.02,meteohub,2013-11-22 22:37:00,
2013-11-22 16:42:00,30.7,27.9,30.48,North,350,0.0,0.0,89,0.00,,,0.02,meteohub,2013-11-22 22:42:00,
2013-11-22 16:47:00,30.7,27.9,30.48,NNW,329,0.0,0.0,89,0.00,,,0.02,meteohub,2013-11-22 22:47:00,
2013-11-22 16:52:00,30.7,27.9,30.48,NNW,338,0.0,0.0,89,0.00,,,0.02,meteohub,2013-11-22 22:52:00,
2013-11-22 16:57:00,30.7,27.9,30.49,NNW,330,0.0,0.0,89,0.00,,,0.02,meteohub,2013-11-22 22:57:00,
2013-11-22 17:02:00,30.6,27.7,30.48,NW,322,0.0,0.0,89,0.00,,,0.02,meteohub,2013-11-22 23:02:00,
2013-11-22 17:07:00,30.6,27.7,30.48,North,5,0.0,0.0,89,0.00,,,0.02,meteohub,2013-11-22 23:07:00,
2013-11-22 17:12:00,30.7,27.9,30.48,NW,311,0.0,0.0,89,0.00,,,0.02,meteohub,2013-11-22 23:12:00,
2013-11-22 17:17:00,30.7,27.9,30.48,NNW,340,0.0,0.0,89,0.00,,,0.02,meteohub,2013-11-22 23:17:00,
2013-11-22 17:22:00,30.7,27.9,30.48,NNE,28,0.0,0.0,89,0.00,,,0.02,meteohub,2013-11-22 23:22:00,
2013-11-22 17:27:00,30.7,27.9,30.48,North,0,0.0,0.0,89,0.00,,,0.02,meteohub,2013-11-22 23:27:00,
2013-11-22 17:32:00,30.7,27.7,30.49,North,0,0.0,0.0,88,0.00,,,0.02,meteohub,2013-11-22 23:32:00,
2013-11-22 17:37:00,30.9,27.9,30.49,North,355,0.0,0.0,88,0.00,,,0.02,meteohub,2013-11-22 23:37:00,
2013-11-22 17:42:00,30.9,27.9,30.49,NNW,345,0.0,0.0,88,0.00,,,0.02,meteohub,2013-11-22 23:42:00,
2013-11-22 17:47:00,30.9,27.9,30.49,NNW,348,0.0,0.0,88,0.00,,,0.02,meteohub,2013-11-22 23:47:00,
2013-11-22 17:52:00,31.1,28.0,30.49,WNW,300,0.0,0.0,88,0.00,,,0.02,meteohub,2013-11-22 23:52:00,
2013-11-22 17:57:00,31.1,28.0,30.48,NNW,345,0.0,0.0,88,0.00,,,0.02,meteohub,2013-11-22 23:57:00,
2013-11-22 18:02:00,31.3,28.2,30.48,ENE,57,0.0,0.0,88,0.00,,,0.02,meteohub,2013-11-23 00:02:00,
2013-11-22 18:07:00,31.3,28.2,30.48,NNW,329,0.0,0.0,88,0.00,,,0.02,meteohub,2013-11-23 00:07:00,
2013-11-22 18:12:00,31.3,28.2,30.48,North,5,0.0,0.0,88,0.00,,,0.02,meteohub,2013-11-23 00:12:00,
2013-11-22 18:18:00,31.3,28.2,30.48,NNW,338,0.0,0.0,88,0.00,,,0.02,meteohub,2013-11-23 00:18:00,
2013-11-22 18:23:00,31.3,27.9,30.48,NNW,346,0.0,0.0,87,0.00,,,0.02,meteohub,2013-11-23 00:23:00,
2013-11-22 18:28:00,31.3,27.9,30.49,NNE,13,0.0,0.0,87,0.00,,,0.02,meteohub,2013-11-23 00:28:00,
2013-11-22 18:33:00,31.3,27.9,30.49,NNW,348,0.0,0.0,87,0.00,,,0.02,meteohub,2013-11-23 00:33:00,
2013-11-22 18:38:00,31.3,27.9,30.49,NNW,345,0.0,0.0,87,0.00,,,0.02,meteohub,2013-11-23 00:38:00,
2013-11-22 18:43:00,31.3,27.9,30.50,NNW,336,0.0,0.0,87,0.00,,,0.02,meteohub,2013-11-23 00:43:00,
2013-11-22 18:48:00,31.3,27.9,30.50,NW,323,0.0,0.0,87,0.00,,,0.02,meteohub,2013-11-23 00:48:00,
2013-11-22 18:53:00,31.3,27.9,30.50,NW,325,0.0,0.0,87,0.00,,,0.02,meteohub,2013-11-23 00:53:00,
2013-11-22 18:58:00,31.3,27.9,30.51,ENE,70,0.0,0.0,87,0.00,,,0.02,meteohub,2013-11-23 00:58:00,
2013-11-22 19:03:00,31.3,27.9,30.51,NNW,327,0.0,0.0,87,0.00,,,0.02,meteohub,2013-11-23 01:03:00,
2013-11-22 19:08:00,31.5,28.0,30.51,NNW,338,0.0,0.0,87,0.00,,,0.02,meteohub,2013-11-23 01:08:00,
2013-11-22 19:13:00,31.5,28.0,30.51,North,355,0.0,0.0,87,0.00,,,0.02,meteohub,2013-11-23 01:13:00,
2013-11-22 19:18:00,31.6,28.2,30.52,NNW,346,0.0,0.0,87,0.00,,,0.02,meteohub,2013-11-23 01:18:00,
2013-11-22 19:23:00,31.5,27.7,30.52,NNW,335,0.0,0.0,86,0.00,,,0.02,meteohub,2013-11-23 01:23:00,
2013-11-22 19:28:00,31.5,27.7,30.51,North,9,0.0,0.0,86,0.00,,,0.02,meteohub,2013-11-23 01:28:00,
2013-11-22 19:33:00,31.5,27.7,30.51,NW,317,0.0,0.0,86,0.00,,,0.02,meteohub,2013-11-23 01:33:00,
2013-11-22 19:38:00,31.6,28.2,30.51,North,355,0.0,0.0,87,0.00,,,0.02,meteohub,2013-11-23 01:38:00,
2013-11-22 19:43:00,31.6,28.2,30.52,NNW,327,0.0,0.0,87,0.00,,,0.02,meteohub,2013-11-23 01:43:00,
2013-11-22 19:48:00,31.6,28.2,30.52,NNE,12,0.0,0.0,87,0.00,,,0.02,meteohub,2013-11-23 01:48:00,
2013-11-22 19:53:00,31.6,28.2,30.52,NNW,344,0.0,0.0,87,0.00,,,0.02,meteohub,2013-11-23 01:53:00,
2013-11-22 19:58:00,31.5,28.0,30.52,NNW,336,0.0,0.0,87,0.00,,,0.02,meteohub,2013-11-23 01:58:00,
2013-11-22 20:03:00,31.5,28.4,30.52,North,351,0.0,0.0,88,0.00,,,0.02,meteohub,2013-11-23 02:03:00,
2013-11-22 20:08:00,31.5,28.4,30.52,NNW,337,0.0,0.0,88,0.00,,,0.02,meteohub,2013-11-23 02:08:00,
2013-11-22 20:13:00,31.5,28.4,30.52,NNW,335,0.0,0.0,88,0.00,,,0.02,meteohub,2013-11-23 02:13:00,
2013-11-22 20:18:00,31.5,28.4,30.52,NW,320,0.0,0.0,88,0.00,,,0.02,meteohub,2013-11-23 02:18:00,
2013-11-22 20:23:00,31.5,28.4,30.51,North,5,0.0,0.0,88,0.00,,,0.02,meteohub,2013-11-23 02:23:00,
2013-11-22 20:28:00,31.5,28.4,30.52,NNE,20,0.0,0.0,88,0.00,,,0.02,meteohub,2013-11-23 02:28:00,
2013-11-22 20:33:00,31.3,28.2,30.53,North,351,0.0,0.0,88,0.00,,,0.02,meteohub,2013-11-23 02:33:00,
2013-11-22 20:38:00,31.3,28.2,30.52,NNE,16,0.0,0.0,88,0.00,,,0.02,meteohub,2013-11-23 02:38:00,
2013-11-22 20:43:00,31.3,28.2,30.53,NNW,327,0.0,0.0,88,0.00,,,0.02,meteohub,2013-11-23 02:43:00,
2013-11-22 20:48:00,31.3,28.2,30.53,North,351,0.0,0.0,88,0.00,,,0.02,meteohub,2013-11-23 02:48:00,
2013-11-22 20:53:00,31.3,28.2,30.53,NNW,344,0.0,0.0,88,0.00,,,0.02,meteohub,2013-11-23 02:53:00,
2013-11-22 20:58:00,31.3,28.2,30.53,NNW,343,0.0,0.0,88,0.00,,,0.02,meteohub,2013-11-23 02:58:00,
2013-11-22 21:03:00,31.3,28.2,30.53,North,355,0.0,0.0,88,0.00,,,0.02,meteohub,2013-11-23 03:03:00,
2013-11-22 21:08:00,31.3,28.2,30.53,NNE,22,0.0,0.0,88,0.00,,,0.02,meteohub,2013-11-23 03:08:00,
2013-11-22 21:13:00,31.3,28.2,30.53,North,355,0.0,0.0,88,0.00,,,0.02,meteohub,2013-11-23 03:13:00,
2013-11-22 21:18:00,31.3,28.4,30.53,NNW,342,0.0,0.0,89,0.00,,,0.02,meteohub,2013-11-23 03:18:00,
2013-11-22 21:23:00,31.3,28.4,30.53,WNW,294,0.0,0.0,89,0.00,,,0.02,meteohub,2013-11-23 03:23:00,
2013-11-22 21:28:00,31.1,28.2,30.53,North,355,0.0,0.0,89,0.00,,,0.02,meteohub,2013-11-23 03:28:00,
2013-11-22 21:33:00,31.1,28.6,30.53,NNW,330,0.0,0.0,90,0.00,,,0.02,meteohub,2013-11-23 03:33:00,
2013-11-22 21:38:00,31.3,28.8,30.53,North,9,0.0,0.0,90,0.00,,,0.02,meteohub,2013-11-23 03:38:00,
2013-11-22 21:43:00,31.1,28.2,30.54,North,351,0.0,0.0,89,0.00,,,0.02,meteohub,2013-11-23 03:43:00,
2013-11-22 21:48:00,31.1,28.2,30.54,NNW,346,0.0,0.0,89,0.00,,,0.02,meteohub,2013-11-23 03:48:00,
2013-11-22 21:53:00,30.9,28.0,30.54,NNW,338,0.0,0.0,89,0.00,,,0.02,meteohub,2013-11-23 03:53:00,
2013-11-22 21:58:00,31.1,28.2,30.54,NNW,343,0.0,0.0,89,0.00,,,0.02,meteohub,2013-11-23 03:58:00,
2013-11-22 22:03:00,31.1,28.6,30.54,NNW,346,0.0,0.0,90,0.00,,,0.02,meteohub,2013-11-23 04:03:00,
2013-11-22 22:08:00,31.3,28.4,30.54,NW,320,0.0,0.0,89,0.00,,,0.02,meteohub,2013-11-23 04:08:00,
2013-11-22 22:13:00,31.1,28.2,30.54,NNW,347,0.0,0.0,89,0.00,,,0.02,meteohub,2013-11-23 04:13:00,
2013-11-22 22:18:00,31.3,28.4,30.54,NNW,336,0.0,0.0,89,0.00,,,0.02,meteohub,2013-11-23 04:18:00,
2013-11-22 22:23:00,31.3,28.4,30.54,North,355,0.0,0.0,89,0.00,,,0.02,meteohub,2013-11-23 04:23:00,
2013-11-22 22:28:00,31.3,28.4,30.54,NNE,16,0.0,0.0,89,0.00,,,0.02,meteohub,2013-11-23 04:28:00,
2013-11-22 22:33:00,31.3,28.4,30.54,NW,321,0.0,0.0,89,0.00,,,0.02,meteohub,2013-11-23 04:33:00,
2013-11-22 22:38:00,31.3,28.4,30.55,NW,320,0.0,0.0,89,0.00,,,0.02,meteohub,2013-11-23 04:38:00,
2013-11-22 22:43:00,31.3,28.4,30.54,NNW,333,0.0,0.0,89,0.00,,,0.02,meteohub,2013-11-23 04:43:00,
2013-11-22 22:48:00,31.3,28.8,30.54,NNW,340,0.0,0.0,90,0.00,,,0.02,meteohub,2013-11-23 04:48:00,
2013-11-22 22:53:00,31.3,28.4,30.54,NW,323,0.0,0.0,89,0.00,,,0.02,meteohub,2013-11-23 04:53:00,
2013-11-22 22:58:00,31.3,28.8,30.55,NNW,342,0.0,0.0,90,0.00,,,0.02,meteohub,2013-11-23 04:58:00,
2013-11-22 23:01:00,31.3,28.4,30.56,NW,319,0.0,0.0,89,0.00,,,0.02,meteohub,2013-11-23 05:01:00,
2013-11-22 23:02:00,31.3,28.4,30.55,North,351,0.0,0.0,89,0.00,,,0.02,meteohub,2013-11-23 05:02:00,
2013-11-22 23:07:00,31.5,28.6,30.55,NW,308,0.0,0.0,89,0.00,,,0.02,meteohub,2013-11-23 05:07:00,
2013-11-22 23:12:00,31.5,28.6,30.55,North,0,0.0,0.0,89,0.00,,,0.02,meteohub,2013-11-23 05:12:00,
2013-11-22 23:17:00,31.5,28.6,30.56,North,355,10.0,0.0,89,0.00,,,0.02,meteohub,2013-11-23 05:17:00,
2013-11-22 23:22:00,31.5,28.6,30.55,NNW,339,10.0,14.0,89,0.00,,,0.02,meteohub,2013-11-23 05:22:00,
2013-11-22 23:27:00,31.5,28.6,30.55,NNW,336,4.0,14.0,89,0.00,,,0.02,meteohub,2013-11-23 05:27:00,
2013-11-22 23:32:00,31.5,28.6,30.55,NW,316,12.0,16.0,89,0.00,,,0.02,meteohub,2013-11-23 05:32:00,
2013-11-22 23:37:00,31.5,28.6,30.55,NNW,346,8.0,16.0,89,0.00,,,0.02,meteohub,2013-11-23 05:37:00,
2013-11-22 23:42:00,31.5,28.6,30.56,NNW,342,7.0,16.0,89,0.00,,,0.02,meteohub,2013-11-23 05:42:00,
2013-11-22 23:47:00,31.5,28.6,30.55,NNW,333,7.0,16.0,89,0.00,,,0.02,meteohub,2013-11-23 05:47:00,
2013-11-22 23:52:00,31.5,28.9,30.55,NNW,331,7.0,15.0,90,0.00,,,0.02,meteohub,2013-11-23 05:52:00,
2013-11-22 23:57:00,31.5,28.9,30.56,NNE,18,6.0,15.0,90,0.00,,,0.02,meteohub,2013-11-23 05:57:00,